Location: *
(30.0216°S, 148.7744°W)
Time: 14:15:44
(UTC+00:00)

Yuri Rocket - Pass Details

Date: 26 November 2025
Orbit: 567 x 1899 km, 28.2° (Epoch: 10 December)

Event Time Altitude Azimuth Distance (km) Brightness Sun altitude
Exits shadow 13:34:37 - 352° (N) 3,161 6.3 -14.4°
Reaches altitude 10° 13:36:11 10° 3° (N) 2,899 6.2 -14.1°
Maximum altitude 13:40:27 16° 39° (NE) 2,738 6.4 -13.3°
Drops below altitude 10° 13:45:26 10° 74° (ENE) 3,521 7.5 -12.4°
Sets 13:50:24 0° 92° (E) 4,783 8.7 -11.5°
